Regional Weather Roundup
Issued by NWS Sioux Falls, SD

Home | Current Version | Previous Version | Text Only | Print | Product List | Glossary Off
Versions: 1 2 3 4 5 6 7 8 9 10 11 12 13 14 15 16 17 18 19 20 21 22 23 24 25 26 27 28 29 30 31 32 33 34 35 36 37 38 39 40 41 42 43 44 45 46 47 48 49 50

000
ASUS43 KFSD 302210
RWRFSD

WEATHER ROUNDUP FOR SE SOUTH DAKOTA/SW MINNESOTA/NW IOWA
NATIONAL WEATHER SERVICE SIOUX FALLS SD
500 PM CDT TUE JUN 30 2015

NOTE: "FAIR" INDICATES FEW OR NO CLOUDS BELOW 12,000 FEET WITH NO
SIGNIFICANT WEATHER AND OR OBSTRUCTIONS TO VISIBILITY.


SDZ038>040-050-052>070-302300-
SOUTHEAST SOUTH DAKOTA

CITY           SKY/WX    TMP DP  RH WIND       PRES   REMARKS
BROOKINGS      CLOUDY    73  63  68 E9        29.93R
CHAMBERLAIN    CLOUDY    76  63  65 SE12      29.88F
HURON          LGT RAIN  71  68  90 SE6       29.87F FOG
MADISON        FAIR      72  72 100 S7        29.91F
MITCHELL       CLOUDY    73  69  87 CALM      29.91S
SIOUX FALLS    LGT RAIN  73  65  75 W3        29.92S
WINNER         FAIR      78  61  55 E16       29.87F
YANKTON        CLOUDY    72  66  83 E5        29.88F
$$

MNZ071-072-080-081-089-090-097-098-302300-
SOUTHWEST MINNESOTA

CITY           SKY/WX    TMP DP  RH WIND       PRES   REMARKS
FAIRMONT       CLOUDY    72  57  60 CALM      29.92S
JACKSON        CLOUDY    72  63  73 NE5       29.94F
LUVERNE        CLOUDY    77  63  61 E5        29.90F
MARSHALL       CLOUDY    72  61  68 S8          N/A
MONTEVIDEO     CLOUDY    75  61  60 S3        29.92S
PIPESTONE      CLOUDY    73  63  68 SE7       29.92F
REDWOOD FALLS  CLOUDY    74  58  57 S6        29.91F
TRACY          CLOUDY    71  63  75 SE5       29.93F
WINDOM         CLOUDY    72  61  68 CALM      29.93F
WORTHINGTON    CLOUDY    73  63  68 E7        29.93F
$$

IAZ001>003-012>014-020>022-031-032-NEZ013-014-SDZ071-302300-
NORTHWEST IOWA

CITY           SKY/WX    TMP DP  RH WIND       PRES   REMARKS
CHEROKEE       CLOUDY    77  68  74 CALM      29.91S
DENISON        CLOUDY    75  68  78 SW3       29.90S
ESTHERVILLE    CLOUDY    72  63  73 NE3       29.93S
LE MARS        LGT RAIN  73  68  83 CALM      29.91F
ORANGE CITY    CLOUDY    73  64  73 CALM      29.91F
SHELDON        CLOUDY    75  64  69 E6        29.90F
SIOUX CITY     LGT RAIN  74  67  78 E6        29.90F
SPENCER        CLOUDY    77  63  61 NE5       29.93S
STORM LAKE     CLOUDY    77  64  65 E5        29.93S
$$

ABBREVIATIONS USED IN REMARKS
   TC - TEMPERATURE IN CELSIUS
  WCI - WIND CHILL INDEX
   HX - HEAT INDEX
  VSB - VISIBILITY



USA.gov is the U.S. government's official web portal to all federal, state and local government web resources and services.